Regional Weather Roundup
Issued by NWS Wakefield, VA

Home | Current Version | Previous Version | Text Only | Print | Product List | Glossary Off
Versions: 1 2 3 4 5 6 7 8 9 10 11 12 13 14 15 16 17 18 19 20 21 22 23 24 25 26 27 28 29 30 31 32 33 34 35 36 37 38 39 40 41 42 43 44 45 46 47 48 49 50

000
ASUS41 KAKQ 271510
RWRAKQ

REGIONAL WEATHER ROUNDUP
NATIONAL WEATHER SERVICE WAKEFIELD VA
1100 AM EDT SUN JUL 27 2014

Note: "fair" indicates few or no clouds below 12,000 feet with no
significant weather and/or obstructions to visibility. * = Denotes
station may not report precipitation (e.g., rain,snow,etc.),
thunder or fog.

VAZ042-051-052>054-056-271600-
NORTHERN VIRGINIA

CITY           SKY/WX    TMP DP  RH WIND       PRES   REMARKS
WASH NATIONAL  CLOUDY    77  67  71 SW8       29.81F
DULLES         CLOUDY    73  67  81 S5        29.82F
FORT BELVOIR   CLOUDY    74  69  85 VRB1      29.82F
QUANTICO       CLOUDY    72  69  90 SW8       29.84S
FREDERICKSBRG* CLOUDY    74  72  93 SW9       29.84R
STAFFORD*      CLOUDY    73  73 100 SW3       29.88R
WARRENTON      CLOUDY    75  74  98 SW6       29.83R
CULPEPER*      CLOUDY   N/A N/A N/A SW6       29.84S
MANASSAS*      SUNNY     73  72  94 SW5       29.82F
LEESBURG*      CLOUDY    77  72  83 W3        29.83F
WINCHESTER     PTSUNNY   77  68  73 SW12      29.83S
$$

VAZ048-049-060>072-079>083-271600-
CENTRAL AND SOUTH CENTRAL VIRGINIA...AND NORTH CENTRAL NORTH CAROLINA

CITY           SKY/WX    TMP DP  RH WIND       PRES   REMARKS
RICHMOND       CLOUDY    74  70  87 SW12      29.86F
CHESTERFIELD*  CLOUDY   N/A N/A N/A SW6       29.88F
HANOVER        CLOUDY    74  71  91 SW9       29.86F
TAPPAHANNOCK*  CLOUDY    74  69  86 S6        29.85R
CHARLOTTSVILLE CLOUDY    72  69  90 SW7       29.89R
ORANGE*        CLOUDY    72  68  88 S10       29.87R
LOUISA*        CLOUDY    72  68  88 SW5       29.86R
FARMVILLE*     CLOUDY    73  72  94 SW5       29.89R
SOUTH HILL*    RAIN      75  73  94 S12       30.00R
ROANOKE RAPIDS NOT AVBL
RALEIGH        LGT RAIN  74  71  91 SE5       29.97S
$$

VAZ088>098-271600-
SOUTHEAST VIRGINIA

CITY           SKY/WX    TMP DP  RH WIND       PRES   REMARKS
NORFOLK        PTSUNNY   80  72  76 S13       29.86F
VIRGINIA BEACH PTSUNNY   82  72  71 S8        29.85F
NORFOLK NAVAL  CLOUDY    80  70  71 S7        29.85F
WEST POINT*    CLOUDY    77  71  80 SW10G16   29.87R
NEWPORT NEWS   CLOUDY    81  71  71 S15       29.85F
LANGLEY AFB    CLOUDY    78  72  81 SW9       29.84F
FORT EUSTIS    CLOUDY    78  78 100 S12       29.84S
WILLIAMSBURG*  CLOUDY    79  73  83 CALM      29.86S
FRANKLIN*      PTSUNNY   79  70  73 S5        29.89S
WAKEFIELD      CLOUDY    77  70  79 SW8       29.87S
$$

VAZ020-022-025-037-045-271600-
WESTERN AND SOUTHWEST VIRGINIA

CITY           SKY/WX    TMP DP  RH WIND       PRES   REMARKS
STAUNTON*      CLOUDY    72  67  85 SW5       29.93R
HOT SPRINGS VA CLOUDY    67  62  85 W13       30.07R
LYNCHBURG      CLOUDY    75  72  88 SW7       29.96R
DANVILLE       CLOUDY    78  72  81 SW7       29.95R
MARTINSVILLE   CLOUDY    78  72  83 CALM      29.99S
ROANOKE        CLOUDY    75  66  73 W8        29.97S
BLACKSBURG     RAIN      70  70 100 CALM        N/A
DUBLIN*        TSTM      70  69  95 SW3       30.03S
MARION*        CLOUDY   N/A N/A N/A SW9G22    30.07S
HILLSVILLE*    CLOUDY    73  63  71 W9G20     30.07R
RICHLANDS*     CLOUDY    73  68  82 W7G17     30.06R
WISE*          CLOUDY    70  68  94 SW13      30.04F
ABINGDON*      CLOUDY    73  69  87 W7        30.05R
$$

MDZ021>025-VAZ099-100-271600-
SOUTHERN MARYLAND AND THE DELMARVA PENINSULA

CITY           SKY/WX    TMP DP  RH WIND       PRES   REMARKS
PATUXENT RIVER LGT RAIN  75  69  81 CALM      29.81F
BAY BRIDGE APT   N/A     77  66  69 SW6       29.81F
LEONARDTOWN    CLOUDY    73  66  78 CALM      29.83F
DOVER          PTSUNNY   79  72  80 SW10      29.79F
GEORGETOWN     CLOUDY    77  68  73 S8        29.82F
EASTON         CLOUDY    81  72  74 W7        29.85F
CAMBRIDGE      PTSUNNY   79  66  65 W6        29.81F
SALISBURY      NOT AVBL
OCEAN CITY     CLOUDY    81  71  71 W8        29.82F
WALLOPS ISLAND CLOUDY    79  71  76 W9        29.83F
ACCOMACK*        N/A     77  68  73 S5        29.83F
$$

NCZ012>017-030>032-271600-
EASTERN NORTH CAROLINA

CITY           SKY/WX    TMP DP  RH WIND       PRES   REMARKS
ELIZABETH CITY PTSUNNY   83  74  74 W6        29.90F
AHOSKIE*       PTSUNNY   82  71  68 SE3       29.90F
EDENTON*       PTSUNNY   83  75  76 W6        29.91S
CURRITUCK*     PTSUNNY   86  71  62 W3        29.90F
KILL DEVIL HLS PTSUNNY   85  75  73 W6        29.89F
MANTEO         NOT AVBL
CAPE HATTERAS  CLOUDY    84  80  88 SW9       29.94S HX  97
GOLDSBORO      MOSUNNY   85  77  76 W10       29.94R HX  96
WASHINGTON     PTSUNNY   83  75  77 W3        29.92S
GREENVILLE     MOSUNNY   86  73  66 CALM      29.94S
NEW BERN       PTSUNNY   88  76  67 SW6       29.94S HX  99
WILMINGTON     MOSUNNY   89  74  60 SW9       29.95S HX  98
$$

VAZ048-271600-
ELSEWHERE

CITY           SKY/WX    TMP DP  RH WIND       PRES   REMARKS
HARRISBURG PA  MOSUNNY   83  67  58 W9        29.78F
BALTIMORE      PTSUNNY   78  67  68 SW7       29.80F
ANNAPOLIS      CLOUDY    80  69  69 VRB5      29.80F
ANDREWS AFB    CLOUDY    76  69  78 VRB5      29.81F
WILMINGTON DE  CLOUDY    80  66  62 W12       29.80S
PHILADELPHIA   PTSUNNY   81  66  60 W15G23    29.79R
WILDWOOD NJ*   PTSUNNY   77  68  73 SW8       29.82F
ATLANTIC CITY  PTSUNNY   83  69  62 SW12      29.80S
HENDERSON NC   LGT RAIN  73  70  91 E7        29.94F
GREENSBORO     LGT RAIN  74  72  93 S5        29.97R FOG
ROCKY MOUNT    MOSUNNY   82  73  74 CALM      29.94R
FAYETTEVILLE   CLOUDY    81  68  64 N10       29.95S
CHARLOTTE      CLOUDY    76  71  85 SW5       30.00R
$$

VAZ100-271600-
MARINE

STATION/POSITION TIME  TEMP    WIND        PRES    WAVE   SWELL
                       AIR SEA DIR/SP/G            HT/PER HT/PER
                 (UTC) (F)     (DEG/KT/KT) (MB)    (FT/S) (FT/S)
44066 TX TWR #4  1500   71 74  200/ 14/ 16 1009.6F
CAPE MAY NJ      1500   75 77  250/  6/  7 1009.1F
LEWES DE         1500   78 71  270/ 10/ 12 1009.2F
15NM E FENWICK I 1500   76 76              1009.9F   3/ 5
OCEAN-CITY-INLET 1500   77 71  280/  5/  8 1009.4S
WACHAPREAGUE VA  1500   78 79  240/  5/  7 1009.8F
THOMAS POINT MD  1500   75 79  220/  5/  7 1009.8F
GOOSES REEF MD   1500   75     250/  6/ 10 1010.1F
COVE POINT MD    1500   75     180/  2/  3 1009.4F
SOLOMONS ISLAND  1500      81                N/A
BISHOPS HEAD MD  1500   76 77  260/  2/  5 1009.2F
PINEY POINT MD   1500          290/  4/  4   N/A
POTOMAC MD       1500   76      50/  4/  6 1008.5F
CAMBRIDGE MD     1500   78 80  230/  6/ 10 1009.1F
LEWISETTA VA     1500   75 80  230/  6/  7 1010.0R
RAPPAHANNOCK LGT 1500          170/ 16/ 18 1009.7F
STINGRAY PT      1500   75     190/ 12/ 16 1010.4S
YORK RVR RNG VA  1500   77     210/ 16/ 18 1009.7R
YORKTOWN VA      1500   75 80  220/ 11/ 15 1010.1R
JAMESTOWN VA     1500   74     230/  8/ 10   N/A
DOMINION TERM VA 1500   77     190/ 10/ 12 1011.1S
KIPTOPEKE VA     1500      81  210/  8/  9   N/A
CHES BAY BRIDGE  1500   78 77  160/ 12/ 14 1009.9F
CAPE HENRY VA    1500   77     170/ 11/ 14 1009.3F
WILLOUBY STN VA  1500          210/ 13/ 15 1010.2R
S CRANEY ISL VA  1500          180/  8/ 11 1011.1S
CAPE HENRY BUOY  1500      77                N/A     2/ 7
1ST LANDING BUOY 1500   78     170/ 12/ 14 1010.1F
CAPE CHARLES BUO 1500      76                N/A     2/ 4
OFFSHORE WE BUOY 1500      78                N/A     2/ 8
64NM E OF VA BCH 1500   79 78  240/ 12/ 14 1011.7F   2/ 6   2/ 6
DUCK PIER NC     1500   81 71  240/  7/  9 1011.8S
44056 DUCK FRF   1500                        N/A     1/13
OREGON INLET NC  1500   81 81  190/ 12/ 12 1012.8F
HATTERAS NC      1500   83 82  210/  7/ 11 1014.2S
DIAMOND SHLS NC  1500          VRB 14/ 16  1013.9R   3/ 5   2/ 7
CAPE LOOKOUT NC  1400   82     220/  8/ 11 1014.1F
$$


USA.gov is the U.S. government's official web portal to all federal, state and local government web resources and services.